軌道要素
Epoch 2016 Sept. 9.0 TT = JDT 2457640.5
T 2016 Sept. 6.53682 TT MPCW
q 2.7543581 (2000.0) P Q
n 0.04879376 Peri. 209.75935 -0.42834395 -0.88569136
a 7.4169702 Node 266.11425 +0.86045191 -0.33926969
e 0.6286411 Incl. 10.34064 +0.27594198 -0.31693358
P 20.20
From 60 observations 2017 Jan. 20-May 23, mean residual 0".5.
|